KSF3-B (55019 NORAD) Tracking and Keplerian Element Data

This shows tracking and keplerian element data for the satellite.

Feedback or suggestion? Click here.




ElementValue
Catalog55019
NameKSF3-B
Epoch Orbit1248
Epoch Day85.14022439
Epoch Year2023
RAAN145.9336
Inclination97.4895
Eccentricity0.0009494
Argument of Perigee308.1461
Mean Anonmoly110.7966
Mean Motion15.14666712
Decay Rate0.00023546
L11 55019U 23001L 23085.14022439 .00023546 00000+0 12721-2 0 9993
L22 55019 97.4895 145.9336 0009494 308.1461 110.7966 15.14666712 12488



Live tracking and technical data element details for KSF3-B (NORAD 55019). KSF3-B can be tracked NOW for your location showing map with azimuth and elevation plus other details from your city location.







IsCatalogInMostPopularTable: catalog: 55019, numindb: 11
Update: records affected: 1



GetName: 55019 KSF3-B

Hit Count: updated at: Mon, 27 Mar 2023 06:41:13 GMT